Regional Weather Roundup
Issued by NWS

Home | Current Version | Previous Version | Text Only | Print | Product List | Glossary Off
Versions: 1 2 3 4 5 6 7 8 9 10 11 12 13 14 15 16 17 18 19 20 21 22 23 24 25 26 27 28 29 30 31 32 33 34 35 36 37 38 39 40 41 42 43 44 45 46 47 48 49 50

000
ASUS43 KLMK 280802
RWRKY
KENTUCKY REGIONAL WEATHER ROUNDUP
NATIONAL WEATHER SERVICE LOUISVILLE KY
300 AM EST FRI NOV 28 2014

NOTE "FAIR" INDICATES FEW OR NO CLOUDS BELOW 12,000 FEET
WITH NO SIGNIFICANT WEATHER AND/OR OBSTRUCTIONS TO VISIBILITY.

KYZ001>023-026-027-061>063-070>075-280900-
WESTERN AND SOUTH CENTRAL KENTUCKY

CITY           SKY/WX    TMP DP  RH WIND       PRES   REMARKS
PADUCAH        PTCLDY    28  24  85 S3        30.43R
HENDERSON      MOCLDY    25  21  86 CALM      30.45S
OWENSBORO      FLURRIES  23  21  92 MISG      30.45S
HOPKINSVILLE   CLOUDY    28  25  89 SW1       30.45R
BOWLING GREEN  CLEAR     23  17  78 CALM      30.45S
GLASGOW        NOT AVBL
$$

KYZ024-025-028>034-038-045-046-053-280900-
NORTH CENTRAL KENTUCKY

CITY           SKY/WX    TMP DP  RH WIND       PRES   REMARKS
LOUISVILLE/SDF PTCLDY    25  19  78 SW5       30.42S WCI  19
LOUISVILLE/LOU CLEAR     25  18  74 SW3       30.44R
FORT KNOX      CLEAR     20  17  89 W2        30.41R
$$

KYZ035>037-039>044-047>052-055>060-089>105-280900-
NORTHEAST KENTUCKY

CITY           SKY/WX    TMP DP  RH WIND       PRES   REMARKS
LEXINGTON      CLOUDY    27  19  72 W5        30.38F WCI  22
COVINGTON      CLOUDY    26  16  65 CALM      30.38R
FRANKFORT      MOCLDY    26  18  71 CALM      30.39S
$$

KYZ054-064>069-076>088-106>120-280900-
SOUTHEAST KENTUCKY

CITY           SKY/WX    TMP DP  RH WIND       PRES   REMARKS
JACKSON        CLOUDY    27  18  69 W6        30.36S WCI  20
LONDON         CLOUDY    27  16  63 W6        30.39S WCI  20
SOMERSET       NOT AVBL
MIDDLESBORO    NOT AVBL
MONTICELLO     CLOUDY    28  22  78 CALM      30.43F
$$




USA.gov is the U.S. government's official web portal to all federal, state and local government web resources and services.